Regional Weather Roundup
Issued by NWS

Home | Current Version | Previous Version | Text Only | Print | Product List | Glossary Off
Versions: 1 2 3 4 5 6 7 8 9 10 11 12 13 14 15 16 17 18 19 20 21 22 23 24 25 26 27 28 29 30 31 32 33 34 35 36 37 38 39 40 41 42 43 44 45 46 47 48 49 50

000
ASUS43 KLSX 281457
RWRMO

WEATHER SUMMARY FOR MISSOURI
NATIONAL WEATHER SERVICE SPRINGFIELD MO
1000 AM CDT SAT MAY 28 2016

NOTE: "FAIR" INDICATES FEW OR NO CLOUDS BELOW 12,000 FEET WITH NO
       SIGNIFICANT WEATHER AND/OR OBSTRUCTIONS TO VISIBILITY.
       CURRENT SKY AND/OR WEATHER CONDITIONS ARE NOT AVAILABLE FOR
       CHILLICOTHE AND FARMINGTON.

MOZ001>031-035>038-043-044-053-054-281600-
...NORTHERN AND WESTERN MISSOURI...

CITY           SKY/WX    TMP DP  RH WIND       PRES   REMARKS
KANSAS CTY INT PTSUNNY   66  60  81 SW15      29.81R
LEE`S SUMMIT   PTSUNNY   68  61  78 SW18      29.83R
ST JOSEPH      CLOUDY    66  60  81 SW20G25   29.80R
CHILLICOTHE      N/A     68  63  84 S8        29.83R

$$
MOZ066>068-077>081-088>096-101>105-281600-
...SOUTHWEST MISSOURI...

CITY           SKY/WX    TMP DP  RH WIND       PRES   REMARKS
SPRINGFIELD    CLOUDY    71  62  73 S14       29.92R
JOPLIN         PTSUNNY   71  62  73 SW20G31   29.91R
BRANSON        PTSUNNY   70  63  78 CALM      29.95R

$$
MOZ032>034-039>042-045>050-055>058-069>072-281600-
...CENTRAL MISSOURI...

CITY           SKY/WX    TMP DP  RH WIND       PRES   REMARKS
COLUMBIA       NOT AVBL
JEFFERSON CITY SUNNY     73  64  73 SW8       29.88R
ROLLA          SUNNY     73  66  78 S12       29.91R
SEDALIA        PTSUNNY   72  63  73 SW17G23   29.87R
WHITEMAN AFB   MOSUNNY   70  64  83 SW20      29.84R
WARRENSBURG    PTSUNNY   70  61  73 S20       29.85R

$$
MOZ051-052-059>065-281600-
...EAST CENTRAL MISSOURI...

CITY           SKY/WX    TMP DP  RH WIND       PRES   REMARKS
ST LOUIS INTL  PTSUNNY   76  64  66 S15       29.93S

$$
MOZ072>076-082>087-097>100-106>115-281600-
...SOUTH CENTRAL AND SOUTHEAST MISSOURI...

CITY           SKY/WX    TMP DP  RH WIND       PRES   REMARKS
CAPE GIRARDEAU CLOUDY    74  68  81 S13G20    29.98R
POPLAR BLUFF   CLOUDY    73  67  81 S8        29.97S
WEST PLAINS    SUNNY     72  62  71 S8        29.96S

$$



USA.gov is the U.S. government's official web portal to all federal, state and local government web resources and services.